Temp
52 52 52 51 51 50 43 35 28 39 44 32 32 30 36 43 42 45 43 42 41 39 40 38 38 39 44 49 47 40 43 38 29 35 46 50 43 39 37 29 30 31 29 37
51 51 51 51 51 49 38 26 30 42 44 20 28 32 36 39 39 39 39 38 42 42 37 32 38 40 47 47 45 40 42 31 23 29 37 43 39 40 38 36 33 30 27 33
52 51 51 51 50 50 38 33 25 28 36 36 31 30 31 32 41 40 41 39 41 37 34 38 34 37 43 44 44 47 45 34 29 25 31 37 33 38 41 36 29 31 32 34
51 51 51 51 50 50 38 28 26 32 20 26 33 35 32 31 32 40 42 36 37 35 29 31 31 36 38 42 45 42 38 23 31 34 35 36 35 34 36 34 34 29 34 36
51 51 51 50 50 48 34 28 25 30 31 35 31 31 31 30 33 35 34 33 36 36 30 31 27 33 32 32 36 35 37 25 30 27 34 34 32 36 37 36 37 38 38 36
50 50 50 50 50 46 33 33 36 32 30 29 28 28 32 33 36 37 39 36 33 32 36 37 38 38 37 36 33 31 30 25 21 21 32 32 24 33 35 37 40 41 34 41
50 50 50 50 49 46 36 34 33 25 23 27 30 33 34 32 34 31 36 37 33 38 43 41 39 37 37 35 34 35 29 28 26 23 26 15 33 43 43 39 42 44 45 46
50 50 49 49 49 47 37 35 32 27 21 29 31 31 31 33 34 32 34 37 41 41 37 27 24 25 29 33 35 33 33 28 24 21 21 28 33 39 37 36 37 44 40 43
49 49 49 49 49 49 38 34 35 31 19 23 33 30 31 28 27 30 33 40 41 38 32 24 19 15 23 23 29 37 33 32 27 25 20 18 32 40 45 43 27 41 42 42
49 49 49 49 49 49 38 36 37 31 27 29 31 24 27 31 29 26 29 32 33 34 19 14 17 20 29 22 23 18 24 24 23 23 20 26 35 41 42 27 28 39 40 42
49 49 49 49 49 49 43 37 40 37 31 33 34 35 30 30 27 23 29 27 26 23 16 14 18 20 25 25 30 27 18 16 21 24 21 18 41 40 32 38 42 41 41 44
48 48 48 48 49 49 48 37 41 42 34 32 36 38 39 39 38 32 30 28 29 28 19 22 24 21 20 22 18 31 22 27 26 28 26 37 41 43 45 46 44 43 44 45
48 48 48 49 49 48 45 39 40 39 32 32 31 32 40 42 40 41 27 29 34 31 31 23 22 20 23 18 21 26 31 38 30 30 37 39 42 43 44 45 43 45 45 45
47 48 48 48 48 48 47 38 39 38 34 25 27 40 35 41 41 39 39 37 39 37 34 29 28 23 30 27 29 29 33 34 33 30 36 37 39 40 42 43 44 43 44 43
47 48 47 48 48 48 41 38 38 40 33 19 24 36 41 44 41 39 38 36 34 33 30 29 26 29 31 31 32 28 34 33 28 27 36 34 35 40 42 41 41 43 42 41
47 47 48 48 48 44 36 27 37 40 37 30 23 34 36 40 40 39 37 37 35 33 31 30 33 36 31 27 24 36 38 41 42 37 41 38 41 40 43 42 42 42 42 41
47 47 47 47 47 36 30 27 34 42 41 31 26 24 33 38 38 34 34 37 36 34 32 31 33 33 32 25 25 37 39 40 41 41 36 36 40 39 42 40 42 42 41 42
47 47 47 47 46 42 34 36 44 39 32 32 23 23 24 34 27 27 32 27 34 33 32 28 29 31 31 27 35 38 40 41 40 41 43 42 43 42 41 41 39 38 36 35
47 47 46 38 33 29 33 44 45 37 31 21 24 20 13 28 24 24 26 26 25 28 27 27 28 25 25 32 36 38 39 38 39 42 39 39 36 38 38 38 38 36 34 34
46 37 26 17 29 41 42 34 28 32 33 32 26 23 20 23 18 19 25 24 27 24 26 28 24 28 37 39 41 41 41 43 43 37 35 34 34 35 36 38 40 37 35 34
31 22 23 32 43 35 28 23 26 24 24 28 30 27 26 31 22 23 25 20 26 23 27 25 25 26 31 39 39 42 42 42 41 38 39 41 39 36 34 35 37 35 34 32
35 34 37 35 33 30 25 23 28 26 25 30 28 29 30 30 32 28 27 24 25 21 30 26 23 30 36 38 38 39 41 41 41 42 40 39 39 37 36 36 34 33 32 30
37 32 25 30 24 19 21 18 24 24 30 31 31 29 32 32 32 29 28 24 24 31 27 26 29 34 36 36 37 38 41 39 35 36 40 39 37 37 37 35 34 32 29 25
27 20 15 21 13 23 26 28 28 31 31 31 32 30 30 32 29 29 25 27 29 23 20 25 30 33 33 34 35 36 36 35 33 36 38 34 34 32 33 33 30 27 23 19
22 26 17 17 25 26 26 27 30 32 33 33 32 31 32 30 27 29 27 25 23 25 25 27 32 32 32 32 33 34 33 32 32 30 31 32 31 31 25 25 27 24 21 19
29 29 25 25 23 23 17 22 28 34 34 34 33 29 28 27 28 27 25 25 23 26 29 30 31 32 31 30 32 32 31 29 29 29 29 27 27 25 20 19 19 20 22 18
25 20 26 27 25 25 26 25 28 35 32 28 29 23 27 31 27 26 28 23 28 31 32 30 31 31 30 30 32 30 29 27 24 22 22 19 20 21 22 18 12 18 17 14
MSLP
1018.49 1018.91 1019.05 1019.26 1019.25 1019.41 1019.70 1020.24 1019.87 1018.37 1018.10 1018.57 1018.43 1017.61 1017.00 1016.33 1015.78 1015.47 1015.26 1014.89 1014.89 1014.78 1014.45 1014.31 1014.16 1013.48 1013.17 1012.86 1013.09 1013.14 1013.18 1013.43 1012.88 1011.92 1010.61 1010.03 1010.23 1010.86 1011.10 1011.09 1010.98 1010.13 1008.77 1004.71
1018.54 1018.76 1018.99 1019.33 1019.43 1019.38 1020.11 1020.49 1019.96 1018.48 1018.43 1018.63 1018.54 1018.13 1017.25 1016.77 1016.41 1016.18 1015.98 1015.73 1015.54 1015.29 1015.52 1015.49 1014.54 1013.92 1013.75 1013.82 1013.66 1013.97 1013.97 1013.98 1013.74 1012.31 1011.75 1010.88 1011.20 1011.91 1012.42 1012.75 1012.44 1010.92 1009.85 1006.35
1018.46 1018.63 1018.89 1019.23 1019.40 1019.42 1019.91 1020.40 1020.51 1019.82 1019.25 1019.04 1018.60 1018.27 1017.69 1017.18 1016.63 1016.46 1016.21 1015.90 1015.86 1016.07 1016.03 1015.80 1015.19 1014.88 1014.57 1014.44 1014.44 1014.30 1014.40 1014.40 1014.50 1013.83 1013.19 1012.82 1012.18 1011.85 1012.10 1012.32 1012.10 1010.81 1009.61 1008.27
1018.17 1018.47 1018.79 1019.03 1019.09 1019.29 1020.06 1020.68 1020.64 1020.45 1019.70 1019.27 1019.00 1018.52 1017.91 1017.24 1017.07 1016.80 1016.35 1016.42 1016.28 1016.69 1016.83 1016.34 1015.74 1015.43 1015.20 1015.05 1014.82 1014.78 1014.95 1014.78 1014.68 1013.88 1013.76 1013.68 1012.76 1011.97 1011.59 1011.54 1010.88 1010.16 1009.13 1009.03
1017.97 1018.26 1018.44 1018.75 1019.07 1019.45 1020.32 1020.93 1020.97 1020.32 1019.96 1019.40 1019.18 1018.73 1018.24 1017.88 1017.63 1017.55 1017.01 1016.88 1016.70 1016.70 1016.67 1016.57 1016.27 1016.04 1015.95 1015.76 1015.48 1015.58 1015.69 1015.50 1015.36 1014.34 1013.52 1013.62 1013.11 1012.14 1010.50 1010.50 1010.19 1009.33 1008.79 1008.10
1017.72 1018.02 1018.29 1018.49 1018.92 1019.41 1020.38 1020.64 1020.40 1020.51 1020.36 1019.95 1019.52 1018.95 1018.41 1018.02 1017.74 1017.33 1017.03 1017.06 1016.98 1016.65 1016.48 1016.34 1016.20 1016.04 1015.98 1015.91 1015.98 1016.23 1016.40 1016.05 1016.03 1014.47 1013.26 1012.93 1012.03 1010.11 1009.83 1009.29 1008.44 1008.17 1007.23 1006.12
1017.51 1017.83 1018.13 1018.32 1018.70 1019.13 1019.89 1020.33 1020.68 1021.07 1020.96 1020.40 1019.63 1018.97 1018.68 1018.48 1018.40 1018.23 1017.68 1017.31 1017.07 1016.82 1016.55 1016.41 1016.31 1016.30 1016.01 1015.91 1015.72 1015.88 1015.94 1015.94 1016.14 1014.67 1013.60 1012.05 1009.49 1008.67 1007.97 1007.20 1006.99 1006.67 1006.23 1005.48
1017.29 1017.59 1017.87 1018.14 1018.50 1018.91 1019.72 1020.13 1020.56 1021.00 1020.96 1020.48 1019.78 1019.31 1018.88 1018.59 1018.43 1018.28 1017.92 1017.41 1016.97 1016.87 1017.06 1017.26 1016.93 1016.66 1016.20 1015.25 1014.80 1014.71 1015.06 1015.57 1015.32 1014.55 1012.94 1010.53 1009.14 1007.72 1006.71 1006.35 1005.96 1005.82 1005.38 1005.03
1016.98 1017.27 1017.50 1017.83 1018.20 1018.57 1019.37 1019.82 1020.11 1020.90 1021.12 1020.23 1019.65 1019.33 1019.09 1018.87 1018.64 1018.24 1017.65 1017.02 1016.81 1017.04 1017.52 1017.96 1017.85 1017.24 1016.40 1015.49 1014.35 1013.61 1014.19 1014.75 1015.00 1013.83 1012.40 1010.51 1008.53 1007.32 1005.97 1006.13 1005.64 1005.06 1004.99 1004.77
1016.67 1016.91 1017.19 1017.45 1017.72 1018.16 1018.96 1019.41 1019.53 1020.39 1020.72 1019.73 1019.48 1019.20 1018.93 1018.68 1018.63 1018.52 1018.24 1017.78 1017.38 1017.38 1018.20 1018.80 1018.32 1017.40 1016.26 1015.42 1014.47 1013.90 1014.07 1014.06 1013.76 1012.86 1011.43 1009.74 1008.19 1007.27 1007.74 1006.67 1005.77 1005.06 1004.83 1004.57
1016.33 1016.54 1016.74 1016.95 1017.22 1017.61 1018.41 1018.77 1018.91 1019.45 1019.43 1018.89 1018.84 1018.59 1018.68 1018.49 1018.49 1018.70 1018.51 1018.53 1017.93 1018.34 1018.83 1018.98 1018.13 1017.22 1015.68 1014.73 1013.61 1013.16 1013.55 1013.43 1012.53 1011.55 1010.69 1009.03 1006.73 1006.89 1006.65 1005.80 1004.62 1004.99 1004.55 1004.38
1015.93 1016.12 1016.30 1016.48 1016.73 1017.04 1017.58 1018.15 1018.35 1018.53 1019.07 1018.37 1017.86 1017.55 1017.44 1017.40 1017.20 1017.92 1018.21 1018.04 1017.77 1017.72 1018.10 1018.28 1017.88 1017.18 1016.02 1014.76 1013.48 1012.77 1012.27 1011.41 1010.51 1010.07 1008.24 1006.70 1006.16 1005.38 1004.84 1004.69 1004.54 1004.17 1003.90 1003.65
1015.45 1015.60 1015.74 1015.90 1016.12 1016.52 1017.07 1017.51 1017.99 1018.45 1018.54 1017.89 1017.48 1016.47 1015.80 1016.10 1016.19 1016.48 1017.29 1016.95 1016.88 1016.77 1016.82 1017.35 1017.25 1016.83 1015.87 1014.66 1012.51 1011.53 1010.29 1009.46 1009.41 1009.24 1006.87 1006.35 1005.60 1005.16 1004.78 1004.45 1003.92 1003.62 1003.32 1003.39
1015.09 1015.19 1015.31 1015.49 1015.77 1016.19 1016.70 1017.44 1017.75 1018.14 1018.19 1018.05 1016.01 1015.22 1015.11 1014.41 1014.62 1015.14 1015.17 1015.03 1015.41 1015.61 1016.07 1015.96 1015.63 1014.94 1013.63 1012.71 1011.62 1010.47 1009.03 1008.48 1007.57 1007.01 1006.05 1005.82 1005.05 1004.79 1004.46 1004.01 1003.61 1003.47 1003.05 1003.01
1014.75 1014.87 1015.07 1015.34 1015.68 1016.04 1016.74 1017.25 1017.35 1017.49 1018.28 1017.83 1016.38 1014.98 1013.35 1012.89 1013.48 1013.74 1014.09 1014.54 1014.78 1014.89 1014.62 1014.18 1013.69 1012.98 1012.59 1011.45 1010.86 1008.24 1007.79 1006.87 1006.95 1005.87 1005.56 1005.44 1004.36 1004.05 1003.69 1003.62 1003.10 1002.87 1003.03 1002.91
1014.41 1014.64 1014.96 1015.26 1015.60 1016.19 1017.01 1017.43 1016.78 1016.91 1017.53 1017.79 1016.58 1014.19 1012.64 1012.04 1012.04 1012.27 1012.53 1012.82 1013.67 1013.62 1012.96 1012.50 1011.87 1011.25 1011.27 1009.75 1008.26 1005.68 1005.76 1005.50 1005.18 1004.81 1004.38 1004.27 1003.66 1003.53 1003.30 1003.13 1002.91 1002.71 1002.71 1002.60
1014.30 1014.66 1014.96 1015.25 1015.63 1016.26 1016.73 1016.68 1016.62 1016.37 1017.05 1017.16 1016.35 1014.80 1012.63 1011.78 1011.51 1011.54 1011.52 1011.83 1012.31 1012.53 1012.15 1011.30 1010.65 1010.22 1010.27 1009.05 1007.15 1002.31 1004.76 1004.51 1004.24 1003.70 1004.20 1003.76 1003.47 1002.99 1002.60 1002.55 1002.45 1002.38 1002.61 1002.61
1014.38 1014.76 1015.08 1015.43 1015.82 1016.26 1016.35 1015.87 1016.10 1016.49 1017.10 1017.30 1016.67 1014.99 1013.98 1012.10 1011.91 1011.83 1011.59 1011.73 1011.84 1011.41 1010.68 1010.32 1009.83 1009.45 1008.81 1007.38 1004.03 1002.65 1003.16 1003.39 1003.27 1003.03 1003.02 1002.71 1002.41 1002.61 1002.30 1002.13 1002.25 1002.35 1002.71 1002.97
1014.56 1014.98 1015.43 1015.98 1016.38 1016.67 1015.92 1015.37 1015.43 1016.13 1016.86 1016.41 1015.99 1015.36 1014.67 1012.66 1012.34 1012.15 1011.83 1011.77 1011.55 1010.38 1009.91 1009.29 1008.87 1007.88 1006.44 1003.59 1002.95 1002.40 1001.86 1002.43 1002.02 1001.97 1001.98 1002.10 1002.16 1001.98 1001.68 1001.90 1002.20 1002.50 1003.14 1003.66
1014.83 1015.46 1016.11 1016.73 1016.05 1015.38 1015.47 1015.52 1015.82 1015.91 1015.73 1015.56 1014.67 1014.48 1014.04 1013.05 1012.58 1012.30 1012.40 1011.47 1010.92 1009.85 1008.33 1007.95 1007.31 1005.47 1003.34 1002.62 1002.03 1001.82 1001.56 1001.22 1001.18 1001.50 1001.34 1001.54 1001.60 1001.49 1001.46 1001.77 1002.20 1002.78 1003.47 1004.31
1015.36 1016.01 1016.06 1015.58 1015.21 1015.49 1015.84 1015.85 1015.53 1015.05 1014.60 1013.90 1013.13 1013.09 1012.80 1012.22 1012.37 1011.96 1011.46 1010.66 1009.84 1008.73 1007.25 1007.08 1005.88 1004.24 1002.89 1002.35 1001.90 1001.39 1000.95 1000.53 1000.30 1000.49 1000.56 1000.47 1000.55 1000.63 1001.29 1002.04 1002.42 1003.12 1003.87 1004.74
1014.72 1014.95 1015.31 1015.50 1015.58 1015.64 1015.78 1015.19 1014.40 1013.95 1013.17 1012.52 1012.23 1011.65 1011.39 1011.07 1010.86 1010.69 1010.11 1009.59 1008.94 1007.28 1006.42 1005.97 1004.44 1003.23 1002.72 1002.28 1001.75 1001.10 1000.46 1000.06 999.81 999.35 999.33 999.66 999.94 1000.13 1000.95 1001.82 1002.73 1003.57 1004.31 1005.33
1014.82 1015.26 1015.75 1015.87 1016.00 1015.73 1014.87 1014.08 1013.34 1012.79 1012.00 1011.11 1010.70 1010.45 1009.89 1009.32 1009.29 1009.24 1008.90 1008.25 1006.94 1006.07 1005.34 1004.41 1003.51 1003.05 1002.80 1002.51 1001.94 1001.04 1000.42 999.71 999.05 997.95 998.40 999.17 999.71 1000.32 1001.11 1002.18 1003.21 1004.10 1005.15 1006.16
1015.34 1015.95 1016.24 1016.32 1015.58 1014.57 1013.50 1012.66 1012.35 1011.72 1011.06 1010.24 1009.73 1009.11 1008.55 1007.96 1008.13 1007.72 1007.40 1006.57 1006.06 1005.20 1004.53 1003.99 1003.42 1003.11 1003.12 1002.74 1002.17 1001.40 1000.70 1000.16 999.63 998.65 998.71 999.46 1000.31 1001.15 1001.90 1002.58 1003.67 1004.70 1006.00 1006.93
1015.70 1015.99 1015.89 1015.35 1014.07 1013.19 1012.56 1012.01 1011.64 1010.68 1009.96 1009.34 1008.28 1007.70 1007.41 1007.07 1006.98 1006.59 1006.29 1005.79 1005.01 1004.69 1004.31 1004.28 1003.30 1003.35 1003.34 1002.94 1002.38 1001.87 1001.38 1001.02 1000.59 1000.35 1000.05 1000.47 1001.23 1002.07 1002.97 1003.76 1004.34 1005.26 1006.53 1007.54
1015.64 1015.51 1015.13 1014.31 1014.22 1013.09 1012.68 1011.98 1011.03 1009.89 1009.38 1008.75 1008.21 1007.50 1006.76 1006.09 1005.92 1005.67 1005.37 1005.04 1004.60 1004.54 1004.43 1003.92 1003.58 1003.47 1003.53 1003.31 1002.82 1002.45 1002.22 1001.97 1001.63 1001.53 1001.63 1001.93 1002.44 1003.06 1004.17 1004.85 1005.49 1006.21 1006.93 1007.89
1015.34 1014.70 1014.10 1014.11 1013.77 1013.01 1011.98 1011.14 1010.25 1009.53 1009.39 1008.90 1008.44 1007.77 1006.61 1005.94 1005.54 1005.43 1005.10 1004.83 1004.53 1004.47 1004.05 1003.93 1003.90 1003.79 1003.66 1003.46 1003.11 1002.87 1002.84 1002.88 1002.99 1003.05 1003.08 1003.51 1003.86 1004.25 1004.91 1005.88 1006.73 1007.18 1007.87 1008.55
Wind_Speed
9 8 5 4 2 3 6 0 2 4 2 3 3 10 3 2 7 4 2 3 3 2 2 4 6 8 4 10 6 5 3 4 5 9 12 10 2 4 3 4 4 5 5 17
10 10 7 5 3 5 3 1 2 2 1 3 6 4 2 2 2 1 1 3 1 3 1 4 6 3 4 5 5 6 3 1 5 6 3 5 6 3 4 2 4 4 4 10
11 11 10 9 6 6 4 2 2 5 2 2 2 4 3 4 3 5 6 5 6 2 3 4 4 4 2 6 3 10 5 5 6 10 8 11 14 15 11 5 6 9 11 18
12 12 11 9 7 7 5 2 2 2 3 3 2 4 1 4 3 4 3 5 4 3 4 3 6 3 2 3 3 2 4 5 4 12 12 12 18 19 18 14 12 7 12 14
10 11 10 10 8 8 4 3 2 3 3 4 3 5 1 3 6 6 5 6 8 7 5 8 6 3 2 4 3 2 3 5 4 17 17 11 16 21 24 16 18 20 24 24
10 9 10 10 10 7 2 1 2 4 4 3 1 3 3 2 3 4 3 3 3 3 1 3 5 7 6 6 5 2 3 2 1 14 18 12 11 22 16 21 23 15 16 20
10 9 10 9 10 8 3 2 3 4 4 2 2 5 6 8 6 5 5 2 1 1 5 5 3 5 7 7 11 9 9 10 4 10 14 13 11 11 19 25 22 16 16 19
12 11 11 10 10 13 3 2 3 3 3 3 6 7 6 4 4 4 6 6 7 1 4 2 4 3 5 10 12 11 16 7 5 6 11 16 12 18 9 8 13 12 8 6
12 13 12 12 11 13 4 2 3 3 3 5 10 6 6 8 4 4 5 4 5 3 3 3 5 4 4 5 5 5 5 11 9 7 11 10 9 13 6 6 9 6 8 7
10 12 13 14 13 13 5 3 5 4 2 5 4 5 4 3 1 3 3 3 3 3 2 2 4 7 6 9 11 8 4 5 14 14 10 9 8 10 15 6 6 3 1 5
10 11 13 14 14 15 7 3 6 5 3 7 5 6 7 3 2 4 2 5 3 2 2 4 5 5 6 6 14 11 6 4 9 10 13 15 11 2 9 8 2 4 7 8
11 12 13 14 15 16 14 3 2 5 3 5 4 7 12 15 18 7 5 7 4 4 2 2 1 3 3 1 9 3 9 11 8 9 6 6 5 5 7 8 14 8 9 9
10 11 12 14 14 14 9 2 3 2 3 4 5 10 17 14 14 13 6 3 6 7 6 4 4 8 4 7 10 10 10 12 9 7 19 18 17 8 6 11 14 12 9 10
9 10 10 10 10 13 10 3 3 2 0 2 7 4 5 8 12 15 18 20 7 4 4 7 7 6 8 7 10 13 9 2 4 7 10 8 9 6 8 9 10 8 9 7
10 9 7 7 7 8 5 2 4 4 3 4 6 8 20 18 14 17 15 16 14 6 6 6 8 4 6 6 8 16 7 11 6 11 10 7 9 7 7 9 9 11 9 7
10 8 7 7 9 12 4 2 2 5 4 3 4 5 7 8 7 12 16 15 9 5 3 4 5 4 6 5 7 9 10 11 13 15 10 12 14 8 10 14 14 12 11 7
8 8 8 9 13 4 4 6 4 7 5 3 4 5 5 4 4 2 2 8 6 5 4 5 7 6 7 2 12 28 9 8 10 12 2 11 11 14 10 8 12 6 4 5
10 10 8 7 9 4 3 4 9 6 2 2 4 6 5 2 3 2 0 2 4 5 4 1 3 2 5 8 23 21 16 14 15 18 16 20 18 15 16 10 5 4 4 6
13 10 11 5 3 2 4 5 4 2 4 3 3 3 6 3 2 2 3 3 2 3 4 4 5 4 8 14 17 19 18 11 15 14 10 11 9 13 9 6 6 6 6 7
16 6 5 3 5 6 1 3 2 4 4 4 6 3 6 3 1 4 2 2 4 4 6 3 4 11 20 16 17 14 13 16 15 14 14 7 6 8 7 7 6 6 9 9
3 2 3 4 3 2 2 2 3 2 4 4 4 7 7 2 2 4 4 3 3 4 4 5 4 5 4 5 6 9 12 12 13 14 17 13 10 7 7 7 7 9 11 10
5 5 2 1 1 2 3 4 3 5 4 2 3 5 6 5 5 5 4 4 2 7 3 4 4 3 4 8 11 14 10 8 15 17 14 12 11 8 10 10 9 9 9 9
3 3 3 2 2 2 5 4 3 4 3 4 4 6 4 4 4 4 3 5 5 1 4 4 1 3 6 8 10 13 13 12 15 14 14 11 8 9 9 10 8 9 8 8
2 3 4 4 4 5 6 5 5 4 5 9 8 6 4 4 4 3 5 5 1 4 2 2 4 3 6 9 10 12 12 12 13 4 8 11 11 9 9 11 10 11 9 7
1 2 5 6 6 4 4 4 2 5 5 7 5 4 3 3 3 3 3 3 3 3 1 3 4 4 5 10 11 11 9 8 6 6 6 9 9 10 7 5 8 10 10 9
2 5 4 5 2 6 3 3 5 3 3 3 3 3 4 4 3 4 4 3 3 1 3 4 4 5 5 7 9 9 6 6 5 4 4 5 6 9 8 7 6 7 10 10
3 5 4 7 6 8 5 3 4 1 2 2 3 4 3 3 1 3 2 3 2 3 5 2 4 5 5 6 8 6 5 4 4 3 4 4 6 9 9 9 2 6 6 6
Wind_Direction
180 185 191 197 215 79 58 198 293 292 14 137 207 229 200 286 282 35 334 299 290 266 63 276 252 246 208 6 338 316 176 267 251 243 262 279 109 43 36 150 299 304 289 260
189 187 184 203 196 114 135 149 262 322 161 178 214 280 287 294 313 194 232 276 291 40 88 309 245 271 13 32 38 30 326 300 315 310 95 38 80 164 145 195 222 222 272 277
200 196 193 204 188 152 93 33 302 316 23 359 181 204 236 222 226 228 234 229 231 284 325 219 280 302 294 343 328 318 221 207 220 261 285 315 295 294 286 231 239 271 235 287
201 201 201 206 187 154 91 55 245 200 287 291 254 213 280 174 198 284 338 320 159 206 272 263 267 243 290 221 285 356 28 272 257 268 253 256 276 286 290 261 244 242 300 274
192 200 203 204 193 129 83 145 122 342 305 309 162 212 183 205 219 208 246 243 271 280 245 209 258 293 220 248 311 77 315 265 290 285 278 246 257 264 262 252 255 261 254 263
198 204 210 200 175 120 130 265 315 104 304 325 30 224 200 71 31 283 239 300 297 282 298 274 250 248 231 229 225 217 232 216 101 277 284 289 257 242 257 261 263 256 252 245
204 204 195 187 179 157 138 186 109 96 261 244 256 296 331 313 307 264 297 320 272 250 324 305 300 267 256 232 247 217 245 251 191 273 295 262 246 226 240 249 258 259 265 260
203 200 199 197 193 173 123 159 114 139 244 253 268 268 277 312 306 270 228 242 228 31 310 341 321 296 280 257 229 231 210 224 245 242 247 277 298 268 235 197 248 256 240 286
211 211 207 205 198 185 115 167 127 113 113 238 234 265 273 274 268 282 225 250 276 222 191 160 212 231 236 268 279 236 156 210 230 244 270 272 276 329 257 251 263 275 235 247
216 218 218 216 211 196 137 209 158 111 219 240 187 202 214 217 224 254 304 282 305 117 130 180 215 238 224 236 248 263 243 214 228 250 267 273 238 251 333 251 244 282 279 242
224 223 222 223 220 215 167 221 180 173 223 253 230 208 219 250 168 211 243 8 284 28 157 155 233 220 231 224 242 249 215 220 248 248 249 263 217 230 188 235 266 242 268 251
232 232 231 229 227 223 196 199 179 200 209 264 231 221 228 233 236 241 207 219 185 218 101 235 277 280 308 341 273 252 250 200 233 204 227 236 249 234 259 253 261 246 240 262
239 238 235 234 229 210 195 149 133 162 240 271 234 239 238 233 226 204 214 222 199 219 175 205 226 249 167 252 251 255 245 241 234 233 252 250 258 262 262 260 253 252 241 241
245 242 236 231 216 208 194 167 159 145 241 253 275 258 243 220 215 210 214 236 231 207 181 218 222 215 196 237 254 259 235 302 222 254 276 260 258 240 262 269 254 267 270 257
250 236 216 201 201 206 128 147 198 170 178 235 282 287 268 249 229 222 213 217 224 222 213 209 231 213 238 237 267 255 199 231 213 249 242 224 250 254 272 287 263 265 260 278
225 195 185 180 168 127 90 342 246 184 162 267 285 270 259 258 216 223 218 214 214 215 223 216 217 245 215 225 245 226 195 220 227 250 245 232 272 266 281 267 257 258 267 236
184 175 177 173 152 119 145 188 230 158 152 256 288 276 276 283 244 249 175 177 201 208 231 223 242 230 201 237 264 261 247 236 243 245 223 275 258 275 267 246 259 263 238 205
158 155 148 152 155 32 328 237 179 134 131 196 264 271 336 335 284 323 108 152 202 220 224 173 208 220 203 234 251 267 258 256 255 256 249 256 266 273 267 258 207 192 136 124
151 141 107 69 59 190 238 283 200 121 152 221 227 243 260 350 280 259 328 165 247 238 232 227 161 206 225 224 242 256 260 243 255 257 245 246 237 251 267 192 170 140 134 125
118 68 67 332 220 241 30 12 78 199 203 227 247 153 254 90 12 301 311 236 235 250 235 125 224 246 254 265 258 264 270 267 263 252 250 229 236 232 217 206 171 157 144 135
60 97 193 235 287 80 49 252 223 208 250 218 235 204 251 236 199 230 200 225 245 253 242 183 233 252 254 339 328 300 272 262 253 248 258 243 218 200 166 163 141 134 140 143
184 167 115 49 63 206 199 226 231 207 248 225 236 227 203 223 205 206 203 220 214 250 145 223 245 268 321 327 317 308 301 300 281 245 234 228 211 177 149 146 142 142 137 133
53 52 52 252 249 254 213 226 217 235 222 230 209 258 243 215 179 195 214 229 239 348 231 234 267 270 320 316 313 309 310 311 317 255 224 193 165 135 141 127 128 124 122 125
110 117 292 203 260 241 212 209 228 234 238 257 258 253 241 191 196 210 219 234 289 276 274 313 276 240 302 313 314 314 320 330 334 359 125 123 124 112 122 130 141 134 137 131
160 189 233 226 236 262 242 246 266 246 244 264 267 233 233 203 230 218 257 245 234 246 329 251 281 316 320 321 324 323 323 329 337 340 103 114 121 125 103 104 125 119 124 128
197 234 252 264 320 280 322 252 260 265 273 276 269 274 250 208 209 213 219 259 268 231 254 262 299 309 315 313 324 328 340 342 350 27 59 83 109 126 125 91 84 116 137 137
247 246 222 244 266 259 254 205 242 222 280 294 294 292 332 304 293 266 207 232 266 255 279 297 285 292 311 311 317 328 349 357 8 4 68 83 92 113 114 116 81 102 96 105